www.pogodaiklimat.ru

Погода и климат >> Архив погоды >> Австрия >> Feistritz ob Bleibu


ПОГОДА в Feistritz ob Bleibu

  • Прогноз погоды в Feistritz ob Bleibu
  • Монитор погоды в Feistritz ob Bleibu
  • Климат города

АРХИВ ПОГОДЫ в Feistritz ob Bleibu

Время (UTC), дата Ветер
(напр.,м/с)
 
Видим.   Явления Облачность Т
(С)
Тd
(С)
f
(%)
Тe
(С)
Тes
(С)
Комфортность P
(гПа)
Po
(гПа)
Тmin
(С)
Tmax
(С)
R
(мм)
R24
(мм)
S
(см)
07 11.08 В 3 н/о н/о +19.9 +17.3 85 +23 +23 комфорт 1009.3 949.5
08 11.08 СВ 4 н/о н/о +22.2 +17.6 75 +27 +27 душно 1009.1 949.8
09 11.08 В 2 н/о н/о +21.7 +17.1 75 +26 +26 душно 1008.9 949.5
10 11.08 В 4 н/о н/о +23.3 +18.2 73 +29 +29 душно 1008.6 949.5
11 11.08 СВ 2 н/о н/о +25.6 +18.8 66 +31 +31 очень
душно
1007.9 949.3
12 11.08 СЗ 3 20 км 6/6 600 м
[Cb calv As trans Ci fib]
+25.1 +16.3 58 +28 +33 жарко 1008.1 949.3
13 11.08 В 2 н/о н/о +26.2 +15.7 52 +29 +29 жарко 1007.7 949.2
14 11.08 СВ 3 н/о н/о +25.4 +14.6 51 +28 +28 жарко 1008.0 949.3
15 11.08 З 3 н/о н/о +26.0 +11.1 39 +27 +27 жарко 1008.4 949.7
16 11.08 З 3 н/о н/о +25.4 +8.6 34 +26 +26 жарко 1008.7 949.8
17 11.08 З 4 н/о н/о +24.0 +9.0 38 +25 +25 комфорт 1009.2 950.0
18 11.08 ЮЗ 2 50 км ясно +21.6 +10.1 48 +23 +23 комфорт 1009.8 950.1 +17.2 +27.4
19 11.08 ЮЗ 1 н/о н/о +18.1 +10.3 60 +19 +19 1010.9 950.5
20 11.08 В 2 н/о н/о +15.5 +10.0 70 +15 +15 1011.7 950.7
21 11.08 ЮВ 1 н/о н/о +14.7 +9.8 72 +15 +15 1012.5 951.3
22 11.08 штиль 0 н/о н/о +12.7 +9.6 81 +12 +12 1013.3 951.6
23 11.08 Ю 1 н/о н/о +13.8 +9.2 74 +14 +14 1013.7 952.2
00 12.08 Ю 1 н/о н/о +12.5 +9.2 80 +13 +13 1014.3 952.5
01 12.08 ЮЗ 1 н/о н/о +12.5 +9.6 82 +13 +13 1014.4 952.6
02 12.08 Ю 1 н/о н/о +12.7 +10.1 84 +13 +13 1014.6 952.9
03 12.08 штиль 0 н/о н/о +12.7 +10.7 88 +12 +12 1014.6 952.9
04 12.08 З 1 н/о н/о +12.5 +10.7 89 +12 +12 1014.8 953.0
05 12.08 В 1 40 км 6/4 1500 м
[Sc Ac lent Ci fib]
+13.5 +11.5 88 +14 +14 1015.3 953.7
06 12.08 В 1 50 км 9/4 1500 м
[Sc As trans]
+14.4 +11.7 84 +15 +16 1015.7 954.3 +11.6 +21.8
07 12.08 СЗ 1 н/о н/о +15.0 +11.4 79 +16 +16 1015.4 954.1
08 12.08 штиль 0 н/о н/о +15.6 +11.7 78 +15 +15 1015.6 954.4
09 12.08 З 1 н/о н/о +16.4 +12.1 76 +17 +17 1015.4 954.4
10 12.08 СЗ 1 н/о н/о +17.6 +12.2 71 +19 +19 1015.6 954.8
11 12.08 В 1 н/о н/о +18.2 +12.1 68 +20 +20 1015.4 954.8
12 12.08 В 1 40 км 9/3 1500 м
[Cu Sc As trans]
+19.0 +11.1 60 +21 +27 комфорт 1015.3 954.8
13 12.08 штиль 0 н/о н/о +20.2 +11.3 57 +22 +22 комфорт 1015.0 954.8
14 12.08 ЮВ 1 н/о н/о +20.2 +10.3 53 +23 +23 комфорт 1015.0 954.8
15 12.08 Ю 1 н/о н/о +20.1 +10.9 55 +23 +23 комфорт 1014.7 954.5
16 12.08 Ю 1 н/о н/о +20.4 +10.6 53 +23 +23 комфорт 1014.7 954.5
17 12.08 В 1 н/о н/о +20.6 +10.9 54 +24 +24 комфорт 1014.5 954.4
18 12.08 Ю 1 50 км ясно +18.0 +10.8 63 +19 +19 1015.2 954.5 +14.4 +20.7
19 12.08 Ю 1 н/о н/о +15.7 +10.7 72 +16 +16 1016.9 955.6
20 12.08 штиль 0 н/о н/о +14.4 +10.2 76 +14 +14 1017.9 956.3
21 12.08 З 2 н/о н/о +14.5 +8.4 67 +14 +14 1018.0 956.4
22 12.08 З 2 н/о н/о +15.3 +6.4 55 +15 +15 1017.8 956.3
23 12.08 З 3 н/о н/о +16.5 +6.1 50 +16 +16 1017.7 956.5
00 13.08 СЗ 2 н/о н/о +14.5 +7.2 62 +14 +14 1018.0 956.4
01 13.08 СЗ 2 н/о н/о +12.9 +8.0 72 +12 +12 1018.4 956.4
02 13.08 СЗ 1 н/о н/о +11.4 +8.0 80 +11 +11 1018.8 956.5
03 13.08 С 1 н/о н/о +10.6 +8.0 84 +10 +10 1019.2 956.7
04 13.08 штиль 0 н/о н/о +10.3 +8.0 86 +10 +10 1019.6 957.0
05 13.08 З 1 50 км 3/1 1500 м
[Sc Ac lent]
+11.3 +8.7 84 +11 +12 1019.9 957.5
06 13.08 ЮВ 1 50 км ясно +12.6 +8.9 78 +13 +16 1019.8 957.7 +9.7 +17.9
07 13.08 С 1 н/о н/о +15.9 +10.8 72 +17 +17 1019.5 958.1
08 13.08 С 1 н/о н/о +17.4 +10.9 66 +18 +18 1019.5 958.4
09 13.08 СЗ 2 н/о н/о +20.0 +12.0 60 +22 +22 комфорт 1018.5 958.0
10 13.08 З 2 н/о н/о +21.5 +10.1 48 +23 +23 комфорт 1018.0 957.8
11 13.08 СЗ 2 н/о н/о +22.6 +10.7 47 +25 +25 комфорт 1017.7 957.8
12 13.08 З 2 45 км 3/3 1500 м
[Cu hum]
+23.1 +11.2 47 +25 +36 комфорт 1017.3 957.5
13 13.08 ЮЗ 1 н/о н/о +24.4 +12.5 47 +26 +26 жарко 1016.6 957.1
14 13.08 ЮЗ 2 н/о н/о +25.0 +11.4 43 +26 +26 жарко 1016.3 956.9
15 13.08 З 1 н/о н/о +25.2 +11.5 42 +27 +27 жарко 1016.1 956.8
16 13.08 ЮВ 3 н/о н/о +23.6 +12.4 49 +25 +25 комфорт 1016.4 956.8
17 13.08 ЮВ 3 н/о н/о +23.4 +12.6 51 +26 +26 жарко 1017.0 957.3
18 13.08 ЮВ 3 50 км 3/3 1500 м
[Cu Sc]
+21.7 +11.7 53 +24 +24 комфорт 1017.7 957.6 +12.6 +25.8
19 13.08 ЮВ 4 н/о н/о +21.5 +10.3 49 +23 +23 комфорт 1018.6 958.4
20 13.08 ЮВ 3 н/о н/о +20.7 +10.4 52 +23 +23 комфорт 1019.4 959.0
21 13.08 В 3 н/о н/о +18.5 +11.5 64 +19 +19 1020.5 959.6
22 13.08 В 3 н/о н/о +16.3 +11.9 75 +16 +16 1021.1 959.7
23 13.08 В 2 н/о н/о +15.0 +11.5 80 +15 +15 1021.5 959.8
00 14.08 З 1 н/о н/о +14.1 +11.1 82 +14 +14 1021.8 959.9
01 14.08 штиль 0 н/о н/о +12.8 +10.6 86 +12 +12 1022.2 960.0
02 14.08 ЮЗ 1 н/о н/о +12.2 +10.4 89 +12 +12 1022.4 960.1
03 14.08 штиль 0 н/о н/о +11.9 +10.2 89 +11 +11 1022.6 960.2
04 14.08 штиль 0 н/о н/о +11.5 +10.0 90 +11 +11 1023.0 960.5
05 14.08 штиль 0 50 км ясно +12.7 +11.1 90 +12 +13 1022.7 960.5
06 14.08 СВ 1 50 км ясно +16.1 +12.0 77 +17 +20 1022.3 960.8 +11.2 +21.9
07 14.08 СЗ 1 н/о н/о +17.3 +12.3 72 +18 +18 1022.2 961.0
08 14.08 СЗ 1 н/о н/о +19.3 +12.4 64 +22 +22 комфорт 1021.8 961.0
09 14.08 СЗ 1 н/о н/о +21.5 +13.0 58 +24 +24 комфорт 1021.2 960.9
10 14.08 СВ 2 н/о н/о +24.2 +14.2 54 +27 +27 жарко 1020.2 960.5
11 14.08 СВ 2 н/о н/о +25.6 +14.7 51 +28 +28 жарко 1019.5 960.1
12 14.08 СВ 2 50 км ясно +26.0 +11.0 39 +27 +42 жарко 1019.0 959.7
13 14.08 В 1 н/о н/о +26.4 +12.3 42 +28 +28 жарко 1018.4 959.2
14 14.08 ЮВ 3 н/о н/о +25.7 +11.4 41 +27 +27 жарко 1018.1 958.8
15 14.08 В 3 н/о н/о +26.1 +12.4 43 +28 +28 жарко 1017.6 958.4
16 14.08 В 4 н/о н/о +25.3 +13.6 48 +27 +27 жарко 1017.9 958.5
17 14.08 В 4 н/о н/о +24.0 +13.0 50 +26 +26 жарко 1018.0 958.4
18 14.08 В 3 50 км ясно +22.2 +12.7 55 +25 +25 комфорт 1018.8 958.8 +16.0 +26.9
19 14.08 ЮВ 2 н/о н/о +20.3 +12.5 61 +23 +23 комфорт 1019.8 959.3
20 14.08 ЮВ 2 н/о н/о +18.6 +12.9 69 +20 +20 1020.9 960.0
21 14.08 ЮВ 3 н/о н/о +19.4 +12.3 63 +21 +21 комфорт 1020.8 960.1
22 14.08 ЮВ 2 н/о н/о +18.4 +12.2 67 +19 +19 1021.2 960.3
23 14.08 В 2 н/о н/о +16.0 +12.2 78 +16 +16 1021.9 960.4
00 15.08 Ю 1 н/о н/о +14.8 +11.9 83 +15 +15 1022.0 960.3
01 15.08 ЮЗ 1 н/о н/о +14.2 +11.7 85 +15 +15 1022.3 960.4
02 15.08 штиль 0 н/о н/о +13.6 +11.4 87 +13 +13 1022.4 960.4
03 15.08 штиль 0 н/о н/о +13.1 +11.2 88 +13 +13 1022.4 960.3
04 15.08 штиль 0 н/о н/о +12.5 +11.0 91 +12 +12 1022.6 960.3
05 15.08 штиль 0 50 км ясно +14.3 +12.0 86 +14 +15 1022.4 960.5
06 15.08 С 1 50 км ясно +16.6 +13.1 80 +17 +20 1022.4 961.0 +12.1 +22.1
07 15.08 СВ 1 н/о н/о +19.2 +14.3 73 +22 +22 комфорт 1021.9 961.1
08 15.08 штиль 0 н/о н/о +21.2 +15.4 69 +24 +24 комфорт 1021.2 960.9
09 15.08 З 2 н/о н/о +22.5 +14.2 59 +26 +26 жарко 1020.5 960.5
10 15.08 штиль 0 н/о н/о +24.0 +14.2 54 +26 +26 жарко 1019.9 960.2
11 15.08 В 1 н/о н/о +25.6 +14.6 51 +28 +28 жарко 1018.8 959.5
12 15.08 СВ 1 45 км ясно +27.3 +15.7 49 +30 +48 душно 1017.9 959.0
13 15.08 В 2 н/о н/о +27.9 +15.4 47 +31 +31 душно 1017.5 958.7
14 15.08 В 2 н/о н/о +28.5 +14.1 41 +30 +30 жарко 1016.7 958.0
15 15.08 В 3 н/о н/о +28.7 +15.2 44 +31 +31 жарко 1016.5 957.9
16 15.08 В 5 н/о н/о +27.6 +13.8 43 +30 +30 жарко 1016.4 957.6
17 15.08 В 4 н/о н/о +25.4 +13.6 48 +28 +28 жарко 1017.0 957.7
18 15.08 ЮВ 1 50 км 3/1 1500 м
[Cu hum Ci sp]
+23.3 +14.5 58 +27 +27 душно 1017.6 957.9 +16.5 +29.2
19 15.08 ЮВ 2 н/о н/о +21.6 +14.0 62 +24 +24 комфорт 1018.3 958.2
20 15.08 ЮВ 2 н/о н/о +20.5 +13.7 65 +24 +24 комфорт 1018.7 958.4
21 15.08 штиль 0 н/о н/о +18.3 +13.8 75 +19 +19 1019.5 958.7
22 15.08 ЮЗ 1 н/о н/о +17.0 +13.6 80 +18 +18 1020.1 959.0
23 15.08 ЮВ 1 н/о н/о +16.9 +13.2 79 +18 +18 1020.1 958.9
00 16.08 штиль 0 н/о н/о +15.7 +13.0 84 +15 +15 1020.1 958.7
01 16.08 ЮВ 1 н/о н/о +15.3 +12.8 85 +16 +16 1020.1 958.6
02 16.08 ЮВ 1 н/о н/о +15.5 +12.9 84 +16 +16 1020.3 958.8
03 16.08 штиль 0 н/о н/о +14.3 +12.5 89 +14 +14 1020.2 958.5
04 16.08 З 1 н/о н/о +13.7 +12.2 91 +14 +14 1020.7 958.8
05 16.08 штиль 0 50 км ясно +15.4 +13.2 87 +15 +16 1020.5 959.0
06 16.08 З 1 40 км 3/0
[Cs]
+17.7 +14.8 83 +19 +21 1020.1 959.1 +13.1 +23.2
07 16.08 СЗ 1 н/о н/о +19.5 +15.2 76 +22 +22 комфорт 1020.1 959.5
08 16.08 СЗ 2 н/о н/о +21.1 +15.6 71 +24 +24 комфорт 1019.5 959.3
09 16.08 СЗ 2 н/о н/о +22.9 +15.6 63 +27 +27 душно 1019.1 959.3
10 16.08 СЗ 1 н/о н/о +24.5 +17.2 64 +28 +28 душно 1018.7 959.2
11 16.08 ЮВ 1 н/о н/о +25.7 +16.8 58 +29 +29 душно 1017.9 958.7
12 16.08 ЮВ 2 15 км гроза без осадков 6/4 1500 м
[Cb cap Cs]
+25.5 +15.3 53 +28 +36 жарко 1017.8 958.5
13 16.08 ЮВ 2 н/о осадки н/о +24.4 +18.1 68 +29 +29 душно 1017.6 958.2
14 16.08 ЮЗ 2 н/о осадки н/о +22.8 +17.7 73 +28 +28 душно 1017.9 958.2 0.1
15 16.08 СВ 3 н/о в посл. час осадки {ливн. осадки} н/о +21.3 +17.9 81 +25 +25 комфорт 1019.1 959.0 0.8
16 16.08 штиль 0 н/о н/о +19.1 +17.1 88 +21 +21 комфорт 1020.6 960.0 7
17 16.08 В 2 н/о н/о +18.4 +17.4 94 +20 +20 1020.5 959.7 5
18 16.08 ЮЗ 1 15 км слабый дождь {гроза} 9/6 600 м
[Frnb As trans]
+18.0 +16.7 92 +19 +19 1021.0 960.1 +17.8 +26.6 14
19 16.08 ЮВ 1 н/о н/о +16.9 +15.9 94 +18 +18 1021.6 960.4
20 16.08 ЮЗ 1 н/о н/о +15.9 +15.0 94 +17 +17 1021.9 960.5
21 16.08 Ю 2 н/о н/о +15.7 +14.8 94 +16 +16 1022.0 960.5
22 16.08 Ю 1 н/о н/о +15.0 +14.3 96 +15 +15 1022.4 960.7
23 16.08 штиль 0 н/о н/о +13.9 +13.2 96 +13 +13 1022.8 960.9
00 17.08 Ю 1 н/о н/о +14.4 +13.8 96 +15 +15 1022.3 960.5
01 17.08 ЮВ 1 н/о осадки н/о +14.0 +13.3 96 +14 +14 1022.3 960.4 0.1
02 17.08 Ю 1 н/о н/о +15.1 +14.7 97 +16 +16 1021.8 960.2
03 17.08 З 1 н/о {осадки} н/о +15.7 +15.2 97 +16 +16 1021.8 960.3 0.1
04 17.08 штиль 0 н/о н/о +15.5 +14.7 95 +15 +15 1021.6 960.1
05 17.08 штиль 0 н/о н/о +15.7 +14.8 94 +15 +15 1021.5 960.1
06 17.08 ЮЗ 1 1500 м 10/10 50 м
[St]
+16.4 +15.6 95 +17 +17 1021.8 960.5 +13.7 +18.0 0.1
07 17.08 СЗ 1 н/о н/о +17.0 +15.8 93 +18 +18 1021.7 960.5
08 17.08 С 1 н/о н/о +18.1 +16.3 89 +19 +19 1021.4 960.5
09 17.08 СЗ 1 н/о н/о +19.1 +16.2 83 +22 +22 комфорт 1021.2 960.5
10 17.08 СЗ 2 н/о н/о +20.2 +16.6 80 +24 +24 комфорт 1020.7 960.3
11 17.08 В 1 н/о н/о +22.2 +16.9 72 +27 +27 душно 1019.6 959.6
12 17.08 Ю 1 30 км ясно +23.1 +17.1 69 +28 +45 душно 1018.6 958.9
13 17.08 штиль 0 н/о н/о +25.5 +18.6 66 +30 +30 душно 1017.3 958.1
14 17.08 С 1 н/о н/о +26.7 +18.6 61 +32 +32 очень
душно
1016.5 957.6
15 17.08 С 1 н/о н/о +27.3 +18.1 57 +32 +32 очень
душно
1015.8 957.1
16 17.08 В 1 н/о н/о +27.4 +18.0 57 +32 +32 очень
душно
1015.6 956.9
17 17.08 Ю 1 н/о н/о +25.6 +17.8 62 +30 +30 душно 1016.1 957.0
18 17.08 штиль 0 50 км 6/1 1500 м
[Sc Ac lent Cs]
+22.8 +17.5 72 +28 +28 душно 1017.0 957.3 +16.3 +27.7
19 17.08 штиль 0 н/о н/о +19.9 +16.5 81 +22 +22 комфорт 1018.2 957.8
20 17.08 ЮВ 2 н/о н/о +19.4 +15.8 80 +22 +22 комфорт 1018.4 957.9
21 17.08 Ю 1 н/о н/о +18.3 +15.9 86 +20 +20 1019.1 958.4
22 17.08 Ю 1 н/о н/о +17.5 +15.2 86 +19 +19 1019.3 958.4
23 17.08 ЮЗ 1 н/о н/о +17.2 +15.4 89 +18 +18 1019.8 958.8
00 18.08 штиль 0 н/о н/о +15.8 +14.2 90 +16 +16 1019.9 958.6
01 18.08 ЮВ 1 н/о н/о +16.1 +14.9 93 +17 +17 1019.8 958.5
02 18.08 ЮВ 2 н/о н/о +15.9 +14.2 90 +16 +16 1019.2 957.9
03 18.08 ЮЗ 1 н/о н/о +14.9 +13.7 93 +15 +15 1019.9 958.4
04 18.08 ЮВ 1 н/о н/о +14.9 +13.9 94 +15 +15 1020.1 958.6
05 18.08 ЮЗ 1 40 км 6/0
[Cs]
+15.9 +14.2 90 +17 +17 1020.0 958.7
06 18.08 штиль 0 30 км 6/0
[Cs]
+17.4 +16.1 92 +17 +20 1019.9 958.9 +14.2 +22.7

 

Местоположение метеостанции Feistritz ob Bleibu (Австрия): широта 46.57 долгота 14.77 высота над уровнем моря 527 м.

В архиве по умолчанию представлена погода в Feistritz ob Bleibu за последнюю неделю. Архивные данные за месяц целиком и за предыдущие месяцы, начиная с января 2011 года, Вы можете получить, выбрав интересующий диапазон дат из раскрывающегося списка и нажав кнопку "Ввод!".

Внимание! Время в таблицах - всемирное. Для получения местного времени необходимо прибавить поправку, которая в Feistritz ob Bleibu равна 1 ч.

Смотрите также архив погоды в соседних городах и на ближайших метеорологических станциях:

Погода в Eisenkappel (Австрия) (16 км)
Погода в St. Andrae I.L. (Австрия) (23 км)
Погода в Slovenj Gradec (Словения) (29 км)
Погода в Klagenfurt Flughafen (Австрия) (35 км)
Погода в Klagenfurt Flughafen (Австрия) (35 км)
Погода в Preitenegg (Австрия) (42 км)
Погода в Deutschlandsberg (Австрия) (45 км)
Погода в Ljubljana (Словения) (45 км)
Погода в Poertschach (Австрия) (46 км)
Погода в Lesce (Словения) (50 км)

Пояснения к столбцам:

Ветер - указаны скорость ветра в м/с - средняя за 10 мин, порывы в срок и между сроками (в фигурных скобках) и направление, откуда дует ветер: С - северный, СВ - северо-восточный, В - восточный, ЮВ - юго-восточный, Ю - южный, ЮЗ - юго-западный, З - западный, СЗ - северо-западный.
Видимость - горизонтальная дальность видимости в метрах или километрах. При видимости от 1 до 10 км при отсутствии осадков обычно наблюдается дымка, при ухудшении видимости до 1 км и менее - туман. В сухую погоду видимость может ухудшаться дымом, пылью или мглою.
Явления - указаны атмосферные явления, наблюдавшиеся в срок или в последний час перед сроком; фигурными скобками обозначены явления, наблюдавшиеся между сроками (за 1-3 часа до срока); квадратными скобками обозначены град или гололедные отложения с указанием их диаметра в мм.
Облачность - указаны через наклонную черту общая и нижняя облачность в баллах и высота нижней границы облаков в метрах; квадратными скобками обозначены формы облаков: Ci - перистые, Cs - перисто-слоистые, Cc - перисто-кучевые, Ac - высококучевые, As - высокослоистые, Sc - слоисто-кучевые, Ns - слоисто-дождевые, Cu - кучевые, Cb - кучево-дождевые. Подробнее классификацию облаков см. в Атласе облаков (PDF).
T - Температура воздуха - температура, измеренная на высоте 2 м над землей.
Td - Температура точки росы - температура, при понижении до которой содержащийся в воздухе водяной пар достигнет насыщения.
f - Относительная влажность воздуха - влажноcть воздуха, измеренная на высоте 2 м над землей.
Te - Эффективная температура - температура, которую ощущает одетый по сезону человек в тени. Характеристика душности погоды. При расчете учитывается влияние влажности воздуха и скорости ветра на теплоощущения человека.
Tes - Эффективная температура на солнце - температура, которую ощущает человек, с поправкой на солнечный нагрев. Характеристика знойности погоды. Зависит от высоты солнца над горизонтом, облачности и скорости ветра. Ночью, в пасмурную погоду, а также при ветре 12 м/с и более поправка равна нулю.
P - Атмосферное давление - приведенное к уровню моря атмосферное давление.
Po - Атмосферное давление - измеренное на уровне метеостанции атмосферное давление.
Tmin - Минимальная температура - минимум температуры воздуха на высоте 2 м над землей.
Tmax - Максимальная температура - максимум температуры воздуха на высоте 2 м над землей.
R - Количество осадков - Количество выпавших осадков за период времени, мм. При наведении курсора мыши на число - период времени, за который выпало указанное количество осадков.
R24 - Количество осадков - Количество выпавших осадков за 24 часа, мм.
S - Снежный покров - Высота снежного покрова, см. При наведении курсора мыши на число - состояние снежного покрова и степень покрытия местности в баллах.